#timestamp,LO_Frequency,Hit,StdDev 
1665662415.0,286047002.0,N
1665662415.9,286047002.0,N
1665662435.8,286047006.4,N
1665662455.6,286047008.3,N
1665662475.4,286047007.6,N
1665662495.3,286047008.9,N
1665662515.1,286047006.5,N
1665662535.9,286047006.7,N
1665662555.7,286047010.9,Y
1665662575.5,286047009.0,P
1665662595.4,286047003.0,N
1665662615.2,286047001.7,N
1665662635.0,286046998.4,N
1665662635.9,286046998.4,N
1665662655.8,286046997.5,N
1665662675.6,286046997.1,N
1665662695.5,286046997.1,N
1665662715.3,286047002.0,N
1665662735.1,286047005.6,N
1665662755.9,286047004.4,N
1665662775.7,286046999.8,N
1665662795.5,286046999.4,N
1665662815.4,286046997.1,N
1665662835.2,286046995.9,N
1665662855.1,286046995.8,N
1665662856.0,286046995.8,N
1665662875.8,286046992.1,N
1665662895.6,286046993.5,N
1665662915.5,286046994.7,N
1665662935.3,286046995.0,N
1665662955.1,286046994.9,N
1665662975.9,286046993.3,N
1665662995.7,286046993.3,N
1665663015.6,286046992.0,N
1665663035.4,286046992.0,N
1665663055.2,286046992.4,N
1665663075.1,286046994.5,N
1665663076.0,286046994.5,N
1665663095.8,286046996.2,N
1665663115.6,286046997.1,N
1665663135.5,286046996.2,N
1665663155.3,286046994.0,N
1665663175.2,286046994.8,N
1665663195.9,286046995.7,N
1665663215.7,286046991.7,N
1665663235.6,286046989.1,Y
1665663255.4,286046994.8,P
1665663275.3,286046992.5,P
1665663295.1,286046992.9,P
1665663296.0,286046992.9,Y
1665663315.8,286046998.0,P
1665663335.7,286046998.0,N
1665663355.5,286047000.3,N
1665663375.3,286046997.2,N
1665663395.2,286046997.7,N
1665663415.0,286046999.5,N
1665663415.9,286046999.5,N
1665663435.8,286047001.0,N
1665663455.6,286046999.7,N
1665663475.4,286047003.4,N
1665663495.3,286047003.7,N
1665663515.1,286047004.0,N
1665663535.8,286047004.4,N
1665663555.7,286047001.9,N
1665663575.5,286047000.3,N
1665663595.4,286047000.5,N
1665663615.2,286047002.5,N
1665663635.0,286047001.2,N
1665663635.9,286047001.2,N
1665663655.8,286047002.7,N
1665663675.6,286046997.5,N
1665663695.4,286046996.4,N
1665663715.3,286046993.9,N
1665663735.1,286046997.3,N
1665663755.9,286046999.2,N
1665663775.7,286047001.4,N
1665663795.5,286047005.7,N
1665663815.4,286047002.1,N
1665663835.2,286047000.7,N
1665663855.0,286046997.1,N
1665663855.9,286046997.1,N
1665663875.8,286046997.4,N
1665663895.6,286046995.1,N
1665663915.5,286046997.9,N
1665663935.3,286046999.1,N
1665663955.1,286046998.9,N
1665663975.9,286047001.2,N
1665663995.7,286047000.7,N
1665664015.5,286046998.7,N
1665664035.4,286046999.5,N
1665664055.2,286046993.8,N
1665664075.0,286046991.8,N
1665664076.0,286046991.8,N
1665664095.8,286046992.7,N
1665664115.6,286046990.5,N
1665664135.5,286046992.4,N
1665664155.3,286046992.1,N
1665664175.1,286046992.1,N
1665664195.9,286046994.6,N
1665664215.7,286046993.5,N
1665664235.5,286046997.5,N
1665664255.4,286046997.5,N
1665664275.2,286046993.4,N
1665664295.1,286046996.6,N
1665664296.0,286046996.6,N
1665664315.8,286047002.3,N
1665664335.6,286047000.0,N
1665664355.5,286046996.5,N
1665664375.3,286046995.7,N
1665664395.1,286046994.5,N
1665664415.9,286046991.9,N
1665664435.7,286046992.3,N
1665664455.6,286046994.3,N
1665664475.4,286046995.8,N
1665664495.2,286046998.7,N
1665664515.1,286046997.2,N
1665664516.0,286046997.2,N
1665664535.8,286046995.3,N
1665664555.7,286046997.3,N
1665664575.5,286046999.6,N
1665664595.3,286046996.0,N
1665664615.2,286046996.3,N
1665664635.0,286046994.5,N
1665664635.9,286046994.5,N
1665664655.7,286046991.3,Y
1665664675.6,286046994.8,P
1665664695.4,286046990.6,P
1665664715.3,286046993.0,P
1665664735.1,286046990.4,Y
1665664755.8,286046996.1,P
1665664775.7,286046995.4,P
1665664795.5,286046992.5,P
1665664815.4,286046991.9,Y
1665664835.2,286047000.9,P
1665664855.0,286047002.6,N
1665664855.9,286047002.6,N
1665664875.8,286047003.3,N
1665664895.6,286047001.1,N
1665664915.5,286047000.8,N
1665664935.3,286047000.4,N
1665664955.1,286047001.3,N
1665664975.9,286047001.7,N
1665664995.7,286047002.1,N
1665665015.6,286047002.6,N
1665665035.4,286047000.0,N
1665665055.2,286047002.8,N
1665665075.1,286047000.7,N
1665665076.0,286047000.7,N
1665665095.8,286047002.7,N
1665665115.6,286047002.4,N
1665665135.5,286047000.0,N
1665665155.3,286046999.5,N
1665665175.2,286047008.4,Y
1665665195.9,286046996.8,P
1665665215.7,286046996.8,N
1665665235.6,286046999.1,N
1665665255.4,286046999.1,N
1665665275.2,286046997.5,N
1665665295.1,286046995.7,N
1665665296.0,286046995.7,N
1665665315.8,286046997.5,N
1665665335.7,286046999.1,N
1665665355.5,286046998.5,N
1665665375.3,286046999.5,N
1665665395.2,286046997.7,N
1665665415.0,286046994.9,Y
1665665415.9,286046994.9,P
1665665435.8,286046999.1,N
1665665455.6,286047000.9,N
1665665475.4,286046998.7,N
1665665495.3,286047001.0,N
1665665515.1,286046996.7,N
1665665516.0,286046996.7,N
1665665535.8,286046997.9,N
1665665555.7,286046993.7,Y
1665665575.5,286046996.4,P
1665665595.4,286046995.9,P
1665665615.2,286046995.0,P
1665665635.0,286046995.3,Y
1665665635.9,286046995.3,P
1665665655.8,286047000.5,N
1665665675.6,286047000.8,N
1665665695.4,286047002.4,N
1665665715.3,286047002.3,N
1665665735.1,286046999.8,N
1665665755.9,286047005.9,N
1665665775.7,286047002.9,N
1665665795.5,286047007.6,N
1665665815.4,286047004.9,N
1665665835.2,286047005.0,N
1665665855.0,286047002.2,N
1665665855.9,286047002.2,N
1665665875.8,286047000.1,N
1665665895.6,286046998.6,N
1665665915.5,286046999.5,N
1665665935.3,286046997.6,N
1665665955.1,286046996.1,N
1665665975.9,286046995.1,N
1665665995.7,286046997.5,N
